Location: *
(18.5200°S, 46.4500°E)
Time: 07:49:47
(UTC+00:00)

Ariane Rocket - Pass Details

Date: 19 July 2019
Orbit: 759 x 771 km, 98.8° (Epoch: 21 August)

Event Time Altitude Azimuth Distance (km) Brightness Sun altitude
Exits shadow 15:32:07 17° 87° (E) 1,861 4.4 -13.6°
Maximum altitude 15:32:30 17° 82° (E) 1,854 4.5 -13.7°
Drops below altitude 10° 15:35:48 10° 41° (NE) 2,308 5.3 -14.4°
Sets 15:38:50 0° 22° (NNE) 3,226 6.2 -15.1°
